Time,TemperatureF,DewpointF,PressureIn,WindDirection,WindDirectionDegrees,WindSpeedMPH,WindSpeedGustMPH,Humidity,HourlyPrecipIn,Conditions,Clouds,dailyrainin,SoftwareType,DateUTC
2013-05-25 00:05:00,67.4,64.4,30.15,ESE,119,3.0,3.0,90,0.00,,,0.00,Wunderground v.1.15,2013-05-25 05:05:00,
2013-05-25 00:14:00,67.1,65.0,30.15,SSE,148,6.0,8.0,91,0.00,,,0.00,weatherlink.com 1.10,2013-05-25 05:14:00,
2013-05-25 00:15:00,67.1,64.4,30.15,SE,134,4.0,5.0,91,0.00,,,0.00,Wunderground v.1.15,2013-05-25 05:15:00,
2013-05-25 00:20:00,67.0,64.6,30.16,SE,140,5.0,5.0,92,0.26,,,0.02,Wunderground v.1.15,2013-05-25 05:20:00,
2013-05-25 00:29:00,67.0,65.0,30.17,SSE,162,5.0,10.0,92,0.02,,,0.02,weatherlink.com 1.10,2013-05-25 05:29:00,
2013-05-25 00:35:00,67.0,64.6,30.18,SSE,150,5.0,15.0,92,0.04,,,0.02,Wunderground v.1.15,2013-05-25 05:35:00,
2013-05-25 00:40:00,66.8,64.4,30.18,SSE,153,7.0,9.0,92,0.00,,,0.03,Wunderground v.1.15,2013-05-25 05:40:00,
2013-05-25 00:44:00,66.7,64.0,30.17,South,169,15.0,19.0,92,0.03,,,0.03,weatherlink.com 1.10,2013-05-25 05:44:00,
2013-05-25 00:50:00,66.5,64.1,30.17,SSE,168,9.0,9.0,92,0.00,,,0.03,Wunderground v.1.15,2013-05-25 05:50:00,
2013-05-25 00:55:00,66.3,63.9,30.17,SSE,168,7.0,9.0,92,0.00,,,0.03,Wunderground v.1.15,2013-05-25 05:55:00,
2013-05-25 00:59:00,66.3,64.0,30.17,South,170,6.0,11.0,92,0.04,,,0.04,weatherlink.com 1.10,2013-05-25 05:59:00,
2013-05-25 01:05:00,66.2,63.5,30.16,SSW,208,6.0,7.0,91,0.00,,,0.04,Wunderground v.1.15,2013-05-25 06:05:00,
2013-05-25 01:14:00,66.0,63.0,30.14,South,190,4.0,9.0,91,0.04,,,0.04,weatherlink.com 1.10,2013-05-25 06:14:00,
2013-05-25 01:20:00,66.0,63.3,30.14,SW,219,5.0,5.0,91,0.00,,,0.04,Wunderground v.1.15,2013-05-25 06:20:00,
2013-05-25 01:25:00,66.0,63.3,30.14,SW,236,5.0,7.0,91,0.00,,,0.04,Wunderground v.1.15,2013-05-25 06:25:00,
2013-05-25 01:30:00,66.1,63.4,30.13,SSW,209,5.0,7.0,91,0.00,,,0.04,Wunderground v.1.15,2013-05-25 06:30:00,
2013-05-25 01:31:00,66.1,64.0,30.13,SW,225,4.0,10.0,91,0.02,,,0.04,weatherlink.com 1.10,2013-05-25 06:31:00,
2013-05-25 01:40:00,66.1,63.4,30.13,SW,227,4.0,7.0,91,0.00,,,0.04,Wunderground v.1.15,2013-05-25 06:40:00,
2013-05-25 01:45:00,66.0,63.3,30.13,SSW,205,5.0,7.0,91,0.00,,,0.04,Wunderground v.1.15,2013-05-25 06:45:00,
2013-05-25 01:46:00,66.0,63.0,30.13,SSW,211,5.0,15.0,91,0.01,,,0.04,weatherlink.com 1.10,2013-05-25 06:46:00,
2013-05-25 01:55:00,66.1,63.4,30.11,SW,222,6.0,6.0,91,0.00,,,0.04,Wunderground v.1.15,2013-05-25 06:55:00,
2013-05-25 02:01:00,66.3,64.0,30.11,SW,215,6.0,11.0,91,0.00,,,0.04,weatherlink.com 1.10,2013-05-25 07:01:00,
2013-05-25 02:10:00,66.6,63.3,30.10,SW,232,5.0,5.0,89,0.00,,,0.04,Wunderground v.1.15,2013-05-25 07:10:00,
2013-05-25 02:15:00,66.7,63.4,30.09,WSW,248,3.0,5.0,89,0.00,,,0.04,Wunderground v.1.15,2013-05-25 07:15:00,
2013-05-25 02:16:00,66.6,63.0,30.09,WSW,248,0.0,8.0,89,0.00,,,0.04,weatherlink.com 1.10,2013-05-25 07:16:00,
2013-05-25 02:25:00,66.5,63.2,30.09,WSW,248,1.0,1.0,89,0.00,,,0.04,Wunderground v.1.15,2013-05-25 07:25:00,
2013-05-25 02:30:00,66.4,63.4,30.09,WSW,250,1.0,1.0,90,0.00,,,0.04,Wunderground v.1.15,2013-05-25 07:30:00,
2013-05-25 02:31:00,66.3,63.0,30.09,WSW,250,1.0,3.0,90,0.00,,,0.04,weatherlink.com 1.10,2013-05-25 07:31:00,
2013-05-25 02:40:00,66.3,63.6,30.09,North,355,1.0,1.0,91,0.00,,,0.04,Wunderground v.1.15,2013-05-25 07:40:00,
2013-05-25 02:46:00,66.2,64.0,30.09,NNE,29,1.0,5.0,91,0.00,,,0.04,weatherlink.com 1.10,2013-05-25 07:46:00,
2013-05-25 02:50:00,66.3,63.6,30.10,NNE,32,1.0,2.0,91,0.00,,,0.04,Wunderground v.1.15,2013-05-25 07:50:00,
2013-05-25 02:55:00,66.2,63.5,30.09,NE,36,1.0,2.0,91,0.00,,,0.04,Wunderground v.1.15,2013-05-25 07:55:00,
2013-05-25 03:00:00,66.2,63.5,30.09,NE,37,1.0,1.0,91,0.00,,,0.04,Wunderground v.1.15,2013-05-25 08:00:00,
2013-05-25 03:01:00,66.2,64.0,30.09,NE,37,0.0,2.0,91,0.00,,,0.04,weatherlink.com 1.10,2013-05-25 08:01:00,
2013-05-25 03:10:00,66.2,63.5,30.10,East,86,3.0,3.0,91,0.00,,,0.04,Wunderground v.1.15,2013-05-25 08:10:00,
2013-05-25 03:15:00,65.9,63.5,30.10,East,94,4.0,4.0,92,0.00,,,0.04,Wunderground v.1.15,2013-05-25 08:15:00,
2013-05-25 03:16:00,65.9,64.0,30.10,East,90,2.0,7.0,92,0.00,,,0.04,weatherlink.com 1.10,2013-05-25 08:16:00,
2013-05-25 03:25:00,65.9,63.5,30.10,ESE,103,1.0,3.0,92,0.00,,,0.04,Wunderground v.1.15,2013-05-25 08:25:00,
2013-05-25 03:30:00,66.0,63.3,30.10,East,87,2.0,2.0,91,0.00,,,0.04,Wunderground v.1.15,2013-05-25 08:30:00,
2013-05-25 03:31:00,66.0,63.0,30.10,East,82,5.0,6.0,91,0.00,,,0.04,weatherlink.com 1.10,2013-05-25 08:31:00,
2013-05-25 03:40:00,66.1,63.1,30.10,East,90,4.0,6.0,90,0.00,,,0.04,Wunderground v.1.15,2013-05-25 08:40:00,
2013-05-25 03:45:00,66.0,63.0,30.11,ESE,112,7.0,10.0,90,0.00,,,0.04,Wunderground v.1.15,2013-05-25 08:45:00,
2013-05-25 03:46:00,65.9,63.0,30.11,East,90,7.0,17.0,90,0.00,,,0.04,weatherlink.com 1.10,2013-05-25 08:46:00,
2013-05-25 03:55:00,65.4,62.7,30.11,SE,134,7.0,8.0,91,0.00,,,0.04,Wunderground v.1.15,2013-05-25 08:55:00,
2013-05-25 04:01:00,65.4,63.0,30.12,East,98,8.0,8.0,92,0.00,,,0.04,weatherlink.com 1.10,2013-05-25 09:01:00,
2013-05-25 04:10:00,65.2,62.8,30.12,ENE,72,5.0,5.0,92,0.00,,,0.04,Wunderground v.1.15,2013-05-25 09:10:00,
2013-05-25 04:15:00,65.3,63.2,30.11,East,90,5.0,13.0,93,0.00,,,0.04,Wunderground v.1.15,2013-05-25 09:15:00,
2013-05-25 04:17:00,65.3,63.0,30.11,ESE,113,4.0,15.0,93,0.00,,,0.04,weatherlink.com 1.10,2013-05-25 09:17:00,
2013-05-25 04:25:00,65.5,63.1,30.11,ESE,102,7.0,7.0,92,0.00,,,0.04,Wunderground v.1.15,2013-05-25 09:25:00,
2013-05-25 04:30:00,65.6,62.9,30.11,ESE,119,5.0,7.0,91,0.00,,,0.04,Wunderground v.1.15,2013-05-25 09:30:00,
2013-05-25 04:32:00,65.6,63.0,30.11,ESE,103,3.0,9.0,91,0.00,,,0.04,weatherlink.com 1.10,2013-05-25 09:32:00,
2013-05-25 04:40:00,65.8,63.1,30.12,ESE,103,6.0,6.0,91,0.00,,,0.04,Wunderground v.1.15,2013-05-25 09:40:00,
2013-05-25 04:47:00,66.0,63.0,30.12,SE,130,5.0,10.0,90,0.00,,,0.04,weatherlink.com 1.10,2013-05-25 09:47:00,
2013-05-25 04:55:00,66.1,63.1,30.11,ESE,112,5.0,5.0,90,0.00,,,0.04,Wunderground v.1.15,2013-05-25 09:55:00,
2013-05-25 05:00:00,66.1,63.1,30.11,ESE,120,5.0,5.0,90,0.00,,,0.04,Wunderground v.1.15,2013-05-25 10:00:00,
2013-05-25 05:02:00,66.1,63.0,30.12,ESE,110,8.0,9.0,90,0.00,,,0.04,weatherlink.com 1.10,2013-05-25 10:02:00,
2013-05-25 05:10:00,66.1,63.1,30.12,East,91,5.0,5.0,90,0.00,,,0.04,Wunderground v.1.15,2013-05-25 10:10:00,
2013-05-25 05:15:00,66.1,63.1,30.12,East,94,5.0,5.0,90,0.00,,,0.04,Wunderground v.1.15,2013-05-25 10:15:00,
2013-05-25 05:17:00,66.1,63.0,30.11,East,88,8.0,9.0,90,0.00,,,0.04,weatherlink.com 1.10,2013-05-25 10:17:00,
2013-05-25 05:25:00,66.0,63.0,30.11,East,97,4.0,5.0,90,0.00,,,0.04,Wunderground v.1.15,2013-05-25 10:25:00,
2013-05-25 05:30:00,65.9,62.9,30.11,ESE,115,4.0,7.0,90,0.00,,,0.04,Wunderground v.1.15,2013-05-25 10:30:00,
2013-05-25 05:32:00,65.8,63.0,30.11,SE,143,5.0,9.0,90,0.00,,,0.04,weatherlink.com 1.10,2013-05-25 10:32:00,
2013-05-25 05:40:00,65.8,62.8,30.11,SE,132,4.0,4.0,90,0.00,,,0.04,Wunderground v.1.15,2013-05-25 10:40:00,
2013-05-25 05:45:00,65.9,62.9,30.10,East,100,4.0,6.0,90,0.00,,,0.04,Wunderground v.1.15,2013-05-25 10:45:00,
2013-05-25 05:47:00,66.0,63.0,30.11,East,101,3.0,9.0,90,0.00,,,0.04,weatherlink.com 1.10,2013-05-25 10:47:00,
2013-05-25 05:55:00,66.2,62.9,30.10,East,92,5.0,5.0,89,0.00,,,0.04,Wunderground v.1.15,2013-05-25 10:55:00,
2013-05-25 06:00:00,66.3,63.0,30.10,ESE,120,5.0,5.0,89,0.00,,,0.04,Wunderground v.1.15,2013-05-25 11:00:00,
2013-05-25 06:02:00,66.3,63.0,30.10,ESE,103,1.0,9.0,89,0.00,,,0.04,weatherlink.com 1.10,2013-05-25 11:02:00,
2013-05-25 06:05:00,66.3,63.0,30.09,East,101,4.0,6.0,89,0.00,,,0.04,Wunderground v.1.15,2013-05-25 11:05:00,
2013-05-25 06:10:00,66.3,63.0,30.10,ESE,117,3.0,3.0,89,0.00,,,0.04,Wunderground v.1.15,2013-05-25 11:10:00,
2013-05-25 06:15:00,66.2,62.9,30.09,ESE,109,3.0,3.0,89,0.00,,,0.04,Wunderground v.1.15,2013-05-25 11:15:00,
2013-05-25 06:17:00,66.2,63.0,30.09,ESE,112,4.0,5.0,89,0.00,,,0.04,weatherlink.com 1.10,2013-05-25 11:17:00,
2013-05-25 06:25:00,66.0,63.0,30.09,ESE,109,3.0,7.0,90,0.00,,,0.04,Wunderground v.1.15,2013-05-25 11:25:00,
2013-05-25 06:30:00,65.9,62.9,30.09,ENE,57,3.0,3.0,90,0.00,,,0.04,Wunderground v.1.15,2013-05-25 11:30:00,
2013-05-25 06:32:00,65.9,63.0,30.09,East,82,3.0,5.0,90,0.00,,,0.04,weatherlink.com 1.10,2013-05-25 11:32:00,
2013-05-25 06:35:00,65.9,62.9,30.09,East,82,3.0,3.0,90,0.00,,,0.04,Wunderground v.1.15,2013-05-25 11:35:00,
2013-05-25 06:40:00,65.9,62.9,30.09,East,82,2.0,2.0,90,0.00,,,0.04,Wunderground v.1.15,2013-05-25 11:40:00,
2013-05-25 06:45:00,65.9,63.2,30.10,ESE,104,2.0,3.0,91,0.00,,,0.04,Wunderground v.1.15,2013-05-25 11:45:00,
2013-05-25 06:49:00,65.9,63.0,30.10,ESE,104,3.0,6.0,91,0.00,,,0.04,weatherlink.com 1.10,2013-05-25 11:49:00,
2013-05-25 06:55:00,66.1,63.4,30.10,East,98,3.0,5.0,91,0.00,,,0.04,Wunderground v.1.15,2013-05-25 11:55:00,
2013-05-25 07:00:00,66.2,63.5,30.10,SE,133,4.0,5.0,91,0.00,,,0.04,Wunderground v.1.15,2013-05-25 12:00:00,
2013-05-25 07:03:00,66.2,64.0,30.10,SE,129,2.0,8.0,91,0.00,,,0.04,weatherlink.com 1.10,2013-05-25 12:03:00,
2013-05-25 07:10:00,66.3,63.9,30.11,SE,127,4.0,5.0,92,0.00,,,0.04,Wunderground v.1.15,2013-05-25 12:10:00,
2013-05-25 07:19:00,66.4,64.0,30.11,SE,126,3.0,8.0,93,0.00,,,0.04,weatherlink.com 1.10,2013-05-25 12:19:00,
2013-05-25 07:20:00,66.5,64.4,30.11,SE,126,3.0,3.0,93,0.00,,,0.04,Wunderground v.1.15,2013-05-25 12:20:00,
2013-05-25 07:25:00,66.6,64.5,30.11,ESE,107,4.0,4.0,93,0.00,,,0.04,Wunderground v.1.15,2013-05-25 12:25:00,
2013-05-25 07:30:00,66.7,64.6,30.11,ESE,119,4.0,4.0,93,0.00,,,0.04,Wunderground v.1.15,2013-05-25 12:30:00,
2013-05-25 07:34:00,66.8,65.0,30.11,SE,132,6.0,10.0,94,0.00,,,0.04,weatherlink.com 1.10,2013-05-25 12:34:00,
2013-05-25 07:35:00,66.8,65.0,30.11,ESE,119,4.0,7.0,94,0.00,,,0.04,Wunderground v.1.15,2013-05-25 12:35:00,
2013-05-25 07:40:00,67.0,65.2,30.12,SE,141,5.0,5.0,94,0.00,,,0.04,Wunderground v.1.15,2013-05-25 12:40:00,
2013-05-25 07:45:00,67.1,65.3,30.13,SE,130,6.0,6.0,94,0.00,,,0.04,Wunderground v.1.15,2013-05-25 12:45:00,
2013-05-25 07:49:00,67.2,66.0,30.13,SE,140,7.0,10.0,94,0.00,,,0.04,weatherlink.com 1.10,2013-05-25 12:49:00,
2013-05-25 07:55:00,67.3,65.5,30.14,ESE,115,5.0,5.0,94,0.00,,,0.04,Wunderground v.1.15,2013-05-25 12:55:00,
2013-05-25 08:00:00,67.4,65.6,30.14,East,98,5.0,5.0,94,0.00,,,0.04,Wunderground v.1.15,2013-05-25 13:00:00,
2013-05-25 08:03:00,67.5,66.0,30.14,ESE,120,4.0,11.0,94,0.00,,,0.04,weatherlink.com 1.10,2013-05-25 13:03:00,
2013-05-25 08:10:00,67.7,65.9,30.14,ESE,115,4.0,7.0,94,0.00,,,0.04,Wunderground v.1.15,2013-05-25 13:10:00,
2013-05-25 08:18:00,67.8,66.0,30.15,ESE,107,4.0,9.0,94,0.00,,,0.04,weatherlink.com 1.10,2013-05-25 13:18:00,
2013-05-25 08:25:00,67.9,65.8,30.15,SE,138,5.0,7.0,93,0.00,,,0.04,Wunderground v.1.15,2013-05-25 13:25:00,
2013-05-25 08:30:00,67.9,65.8,30.15,SE,129,5.0,5.0,93,0.00,,,0.04,Wunderground v.1.15,2013-05-25 13:30:00,
2013-05-25 08:34:00,68.0,66.0,30.15,SE,127,4.0,10.0,93,0.00,,,0.04,weatherlink.com 1.10,2013-05-25 13:34:00,
2013-05-25 08:40:00,68.0,65.9,30.15,ESE,110,3.0,5.0,93,0.00,,,0.04,Wunderground v.1.15,2013-05-25 13:40:00,
2013-05-25 08:45:00,68.0,65.9,30.15,ESE,107,4.0,5.0,93,0.00,,,0.04,Wunderground v.1.15,2013-05-25 13:45:00,
2013-05-25 08:49:00,68.0,66.0,30.15,East,94,5.0,9.0,93,0.00,,,0.04,weatherlink.com 1.10,2013-05-25 13:49:00,
2013-05-25 08:55:00,67.9,65.8,30.15,East,98,7.0,9.0,93,0.00,,,0.04,Wunderground v.1.15,2013-05-25 13:55:00,
2013-05-25 09:00:00,67.9,65.8,30.15,East,98,7.0,7.0,93,0.00,,,0.04,Wunderground v.1.15,2013-05-25 14:00:00,
2013-05-25 09:04:00,67.9,66.0,30.15,ENE,73,5.0,10.0,93,0.00,,,0.04,weatherlink.com 1.10,2013-05-25 14:04:00,
2013-05-25 09:10:00,67.9,65.8,30.15,East,88,6.0,8.0,93,0.00,,,0.04,Wunderground v.1.15,2013-05-25 14:10:00,
2013-05-25 09:15:00,67.9,65.8,30.15,East,98,6.0,8.0,93,0.00,,,0.04,Wunderground v.1.15,2013-05-25 14:15:00,
2013-05-25 09:19:00,67.9,66.0,30.16,ESE,104,4.0,8.0,93,0.00,,,0.04,weatherlink.com 1.10,2013-05-25 14:19:00,
2013-05-25 09:25:00,67.8,65.7,30.16,East,86,6.0,7.0,93,0.00,,,0.04,Wunderground v.1.15,2013-05-25 14:25:00,
2013-05-25 09:30:00,67.8,65.7,30.16,ESE,103,5.0,7.0,93,0.00,,,0.04,Wunderground v.1.15,2013-05-25 14:30:00,
2013-05-25 09:34:00,67.7,66.0,30.16,SE,136,3.0,11.0,93,0.00,,,0.04,weatherlink.com 1.10,2013-05-25 14:34:00,
2013-05-25 09:40:00,67.6,65.5,30.16,SE,132,6.0,6.0,93,0.00,,,0.04,Wunderground v.1.15,2013-05-25 14:40:00,
2013-05-25 09:49:00,67.6,66.0,30.16,ESE,108,8.0,11.0,93,0.00,,,0.04,weatherlink.com 1.10,2013-05-25 14:49:00,
2013-05-25 09:55:00,67.6,65.5,30.16,ESE,116,7.0,7.0,93,0.00,,,0.04,Wunderground v.1.15,2013-05-25 14:55:00,
2013-05-25 10:04:00,67.6,65.0,30.16,ESE,104,4.0,11.0,92,0.00,,,0.04,weatherlink.com 1.10,2013-05-25 15:04:00,
2013-05-25 10:10:00,67.6,65.2,30.16,East,101,5.0,6.0,92,0.00,,,0.04,Wunderground v.1.15,2013-05-25 15:10:00,
2013-05-25 10:15:00,67.6,65.2,30.16,ESE,108,6.0,6.0,92,0.00,,,0.04,Wunderground v.1.15,2013-05-25 15:15:00,
2013-05-25 10:19:00,67.6,65.0,30.16,SSE,150,8.0,13.0,92,0.00,,,0.04,weatherlink.com 1.10,2013-05-25 15:19:00,
2013-05-25 10:25:00,67.7,65.3,30.16,SE,140,7.0,8.0,92,0.00,,,0.04,Wunderground v.1.15,2013-05-25 15:25:00,
2013-05-25 10:30:00,67.8,65.4,30.16,SE,145,7.0,7.0,92,0.00,,,0.04,Wunderground v.1.15,2013-05-25 15:30:00,
2013-05-25 10:34:00,67.9,66.0,30.16,ESE,104,8.0,11.0,92,0.00,,,0.04,weatherlink.com 1.10,2013-05-25 15:34:00,
2013-05-25 10:40:00,68.0,65.3,30.15,East,98,6.0,9.0,91,0.00,,,0.04,Wunderground v.1.15,2013-05-25 15:40:00,
2013-05-25 10:45:00,68.0,65.3,30.15,ESE,121,7.0,9.0,91,0.00,,,0.04,Wunderground v.1.15,2013-05-25 15:45:00,
2013-05-25 10:49:00,68.1,65.0,30.15,SE,144,9.0,13.0,91,0.00,,,0.04,weatherlink.com 1.10,2013-05-25 15:49:00,
2013-05-25 10:55:00,68.3,65.6,30.15,ESE,116,8.0,10.0,91,0.00,,,0.04,Wunderground v.1.15,2013-05-25 15:55:00,
2013-05-25 11:04:00,68.6,66.0,30.15,ESE,113,13.0,13.0,90,0.00,,,0.04,weatherlink.com 1.10,2013-05-25 16:04:00,
2013-05-25 11:10:00,68.5,65.4,30.15,ESE,122,9.0,9.0,90,0.00,,,0.04,Wunderground v.1.15,2013-05-25 16:10:00,
2013-05-25 11:15:00,68.4,65.4,30.15,SE,134,9.0,9.0,90,0.00,,,0.04,Wunderground v.1.15,2013-05-25 16:15:00,
2013-05-25 11:19:00,68.3,65.0,30.15,SE,140,8.0,12.0,90,0.00,,,0.04,weatherlink.com 1.10,2013-05-25 16:19:00,
2013-05-25 11:25:00,68.3,65.3,30.15,SE,136,8.0,9.0,90,0.00,,,0.04,Wunderground v.1.15,2013-05-25 16:25:00,
2013-05-25 11:30:00,68.3,65.3,30.15,ESE,118,9.0,12.0,90,0.00,,,0.04,Wunderground v.1.15,2013-05-25 16:30:00,
2013-05-25 11:34:00,68.4,65.0,30.14,SE,140,5.0,15.0,90,0.00,,,0.04,weatherlink.com 1.10,2013-05-25 16:34:00,
2013-05-25 11:35:00,68.4,65.4,30.14,ESE,112,8.0,12.0,90,0.00,,,0.04,Wunderground v.1.15,2013-05-25 16:35:00,
2013-05-25 11:40:00,68.6,65.5,30.14,SE,129,7.0,8.0,90,0.00,,,0.04,Wunderground v.1.15,2013-05-25 16:40:00,
2013-05-25 11:50:00,69.0,65.9,30.14,SSE,159,6.0,7.0,90,0.00,,,0.04,Wunderground v.1.15,2013-05-25 16:50:00,
2013-05-25 11:51:00,69.0,66.0,30.14,SSE,152,4.0,13.0,90,0.00,,,0.04,weatherlink.com 1.10,2013-05-25 16:51:00,
2013-05-25 11:55:00,69.2,66.1,30.14,SSE,165,6.0,7.0,90,0.00,,,0.04,Wunderground v.1.15,2013-05-25 16:55:00,
2013-05-25 12:05:00,69.8,66.7,30.14,SE,127,6.0,8.0,90,0.00,,,0.04,Wunderground v.1.15,2013-05-25 17:05:00,
2013-05-25 12:06:00,69.8,67.0,30.14,SE,138,5.0,10.0,90,0.00,,,0.04,weatherlink.com 1.10,2013-05-25 17:06:00,
2013-05-25 12:15:00,70.1,66.7,30.14,ESE,121,6.0,7.0,89,0.00,,,0.04,Wunderground v.1.15,2013-05-25 17:15:00,
2013-05-25 12:20:00,70.1,66.7,30.14,South,171,6.0,6.0,89,0.00,,,0.04,Wunderground v.1.15,2013-05-25 17:20:00,
2013-05-25 12:21:00,70.1,67.0,30.14,SE,130,5.0,13.0,89,0.00,,,0.04,weatherlink.com 1.10,2013-05-25 17:21:00,
2013-05-25 12:30:00,70.3,66.9,30.14,SE,126,5.0,5.0,89,0.00,,,0.04,Wunderground v.1.15,2013-05-25 17:30:00,
2013-05-25 12:36:00,70.5,67.0,30.14,SE,142,5.0,7.0,89,0.00,,,0.04,weatherlink.com 1.10,2013-05-25 17:36:00,
2013-05-25 12:45:00,71.1,67.7,30.14,South,170,4.0,6.0,89,0.00,,,0.04,Wunderground v.1.15,2013-05-25 17:45:00,
2013-05-25 12:50:00,71.5,68.1,30.14,SE,146,6.0,10.0,89,0.00,,,0.04,Wunderground v.1.15,2013-05-25 17:50:00,
2013-05-25 12:51:00,71.6,68.0,30.14,SSW,192,10.0,12.0,89,0.00,,,0.04,weatherlink.com 1.10,2013-05-25 17:51:00,
2013-05-25 13:00:00,72.4,68.3,30.13,South,180,8.0,9.0,87,0.00,,,0.04,Wunderground v.1.15,2013-05-25 18:00:00,
2013-05-25 13:06:00,73.1,69.0,30.13,SSE,168,8.0,15.0,86,0.00,,,0.04,weatherlink.com 1.10,2013-05-25 18:06:00,
2013-05-25 13:15:00,74.2,69.4,30.13,South,181,8.0,11.0,85,0.00,,,0.04,Wunderground v.1.15,2013-05-25 18:15:00,
2013-05-25 13:20:00,74.3,69.1,30.13,South,189,8.0,10.0,84,0.00,,,0.04,Wunderground v.1.15,2013-05-25 18:20:00,
2013-05-25 13:21:00,74.3,69.0,30.13,SSE,152,12.0,18.0,83,0.00,,,0.04,weatherlink.com 1.10,2013-05-25 18:21:00,
2013-05-25 13:30:00,74.7,69.2,30.12,SSE,165,8.0,8.0,83,0.00,,,0.04,Wunderground v.1.15,2013-05-25 18:30:00,
2013-05-25 13:36:00,74.7,69.0,30.12,South,180,10.0,14.0,83,0.00,,,0.04,weatherlink.com 1.10,2013-05-25 18:36:00,
2013-05-25 13:45:00,75.1,69.6,30.11,South,187,9.0,10.0,83,0.00,,,0.04,Wunderground v.1.15,2013-05-25 18:45:00,
2013-05-25 13:50:00,75.1,69.6,30.11,South,175,9.0,9.0,83,0.00,,,0.04,Wunderground v.1.15,2013-05-25 18:50:00,
2013-05-25 13:51:00,75.2,70.0,30.11,South,191,8.0,18.0,83,0.00,,,0.04,weatherlink.com 1.10,2013-05-25 18:51:00,
2013-05-25 13:55:00,75.8,69.6,30.11,SSE,163,9.0,10.0,81,0.00,,,0.04,Wunderground v.1.15,2013-05-25 18:55:00,
2013-05-25 14:00:00,76.1,69.1,30.11,South,182,10.0,13.0,79,0.00,,,0.04,Wunderground v.1.15,2013-05-25 19:00:00,
2013-05-25 14:05:00,76.4,69.4,30.11,SSW,202,11.0,13.0,79,0.00,,,0.04,Wunderground v.1.15,2013-05-25 19:05:00,
2013-05-25 14:06:00,76.4,69.0,30.11,South,184,9.0,17.0,79,0.00,,,0.04,weatherlink.com 1.10,2013-05-25 19:06:00,
2013-05-25 14:10:00,76.6,70.0,30.10,South,174,10.0,10.0,80,0.00,,,0.04,Wunderground v.1.15,2013-05-25 19:10:00,
2013-05-25 14:15:00,76.9,69.9,30.10,SSE,157,9.0,11.0,79,0.00,,,0.04,Wunderground v.1.15,2013-05-25 19:15:00,
2013-05-25 14:21:00,77.1,70.0,30.09,South,190,11.0,19.0,78,0.00,,,0.04,weatherlink.com 1.10,2013-05-25 19:21:00,
2013-05-25 14:25:00,77.5,70.1,30.09,SSE,159,10.0,11.0,78,0.00,,,0.04,Wunderground v.1.15,2013-05-25 19:25:00,
2013-05-25 14:30:00,77.8,69.2,30.09,SSW,211,9.0,11.0,75,0.00,,,0.04,Wunderground v.1.15,2013-05-25 19:30:00,
2013-05-25 14:35:00,77.9,69.3,30.09,SE,140,11.0,11.0,75,0.00,,,0.04,Wunderground v.1.15,2013-05-25 19:35:00,
2013-05-25 14:37:00,77.8,69.0,30.09,SSW,192,13.0,21.0,75,0.00,,,0.04,weatherlink.com 1.10,2013-05-25 19:37:00,
2013-05-25 14:45:00,78.0,69.4,30.08,SSE,150,11.0,11.0,75,0.00,,,0.04,Wunderground v.1.15,2013-05-25 19:45:00,
2013-05-25 14:50:00,78.5,69.5,30.08,SSE,167,9.0,9.0,74,0.00,,,0.04,Wunderground v.1.15,2013-05-25 19:50:00,
2013-05-25 14:52:00,78.8,70.0,30.09,SSE,159,7.0,16.0,74,0.00,,,0.04,weatherlink.com 1.10,2013-05-25 19:52:00,
2013-05-25 15:00:00,79.0,69.2,30.09,South,188,8.0,8.0,72,0.00,,,0.04,Wunderground v.1.15,2013-05-25 20:00:00,
2013-05-25 15:05:00,78.9,69.1,30.08,SE,142,9.0,9.0,72,0.00,,,0.04,Wunderground v.1.15,2013-05-25 20:05:00,
2013-05-25 15:07:00,78.9,69.0,30.09,SSE,160,8.0,18.0,71,0.00,,,0.04,weatherlink.com 1.10,2013-05-25 20:07:00,
2013-05-25 15:15:00,78.6,69.2,30.08,SSE,157,8.0,9.0,73,0.00,,,0.04,Wunderground v.1.15,2013-05-25 20:15:00,
2013-05-25 15:20:00,78.7,69.7,30.08,SSW,201,7.0,13.0,74,0.00,,,0.04,Wunderground v.1.15,2013-05-25 20:20:00,
2013-05-25 15:22:00,78.6,69.0,30.08,South,171,11.0,17.0,72,0.00,,,0.04,weatherlink.com 1.10,2013-05-25 20:22:00,
2013-05-25 15:25:00,78.7,69.3,30.08,SSE,166,8.0,13.0,73,0.00,,,0.04,Wunderground v.1.15,2013-05-25 20:25:00,
2013-05-25 15:35:00,79.1,69.7,30.08,ESE,123,8.0,11.0,73,0.00,,,0.04,Wunderground v.1.15,2013-05-25 20:35:00,
2013-05-25 15:37:00,79.1,70.0,30.08,East,98,6.0,14.0,73,0.00,,,0.04,weatherlink.com 1.10,2013-05-25 20:37:00,
2013-05-25 15:45:00,78.8,69.4,30.08,South,172,8.0,10.0,73,0.00,,,0.04,Wunderground v.1.15,2013-05-25 20:45:00,
2013-05-25 15:50:00,78.7,69.7,30.08,SSE,155,8.0,8.0,74,0.00,,,0.04,Wunderground v.1.15,2013-05-25 20:50:00,
2013-05-25 15:52:00,78.6,70.0,30.07,SSE,148,7.0,14.0,74,0.00,,,0.04,weatherlink.com 1.10,2013-05-25 20:52:00,
2013-05-25 16:00:00,78.6,69.6,30.07,SE,146,7.0,7.0,74,0.00,,,0.04,Wunderground v.1.15,2013-05-25 21:00:00,
2013-05-25 16:07:00,78.5,70.0,30.07,SE,142,6.0,12.0,75,0.00,,,0.04,weatherlink.com 1.10,2013-05-25 21:07:00,
2013-05-25 16:15:00,78.3,69.7,30.06,SE,139,7.0,9.0,75,0.00,,,0.04,Wunderground v.1.15,2013-05-25 21:15:00,
2013-05-25 16:20:00,78.2,69.6,30.06,ESE,118,7.0,7.0,75,0.00,,,0.04,Wunderground v.1.15,2013-05-25 21:20:00,
2013-05-25 16:24:00,78.0,70.0,30.06,SE,134,8.0,12.0,75,0.00,,,0.04,weatherlink.com 1.10,2013-05-25 21:24:00,
2013-05-25 16:25:00,78.0,69.8,30.06,SSE,150,7.0,7.0,76,0.00,,,0.04,Wunderground v.1.15,2013-05-25 21:25:00,
2013-05-25 16:30:00,77.8,69.6,30.06,SSE,147,6.0,6.0,76,0.00,,,0.04,Wunderground v.1.15,2013-05-25 21:30:00,
2013-05-25 16:35:00,77.7,69.5,30.06,SE,128,6.0,6.0,76,0.00,,,0.04,Wunderground v.1.15,2013-05-25 21:35:00,
2013-05-25 16:39:00,77.8,70.0,30.06,SE,132,5.0,10.0,76,0.00,,,0.04,weatherlink.com 1.10,2013-05-25 21:39:00,
2013-05-25 16:40:00,77.8,69.6,30.06,SE,130,6.0,7.0,76,0.00,,,0.04,Wunderground v.1.15,2013-05-25 21:40:00,
2013-05-25 16:45:00,77.5,69.3,30.06,SE,132,6.0,7.0,76,0.00,,,0.04,Wunderground v.1.15,2013-05-25 21:45:00,
2013-05-25 16:53:00,77.5,69.0,30.07,SSE,165,9.0,12.0,76,0.00,,,0.04,weatherlink.com 1.10,2013-05-25 21:53:00,
2013-05-25 16:55:00,77.4,69.6,30.07,SSW,192,7.0,7.0,77,0.00,,,0.04,Wunderground v.1.15,2013-05-25 21:55:00,
2013-05-25 17:00:00,73.4,65.4,30.09,SSW,209,12.0,15.0,76,0.00,,,0.05,Wunderground v.1.15,2013-05-25 22:00:00,
2013-05-25 17:05:00,69.1,64.7,30.09,WSW,241,14.0,16.0,86,1.12,,,0.13,Wunderground v.1.15,2013-05-25 22:05:00,
2013-05-25 17:09:00,67.6,64.0,30.08,SW,230,20.0,20.0,89,0.17,,,0.21,weatherlink.com 1.10,2013-05-25 22:09:00,
2013-05-25 17:15:00,66.8,64.1,30.08,SW,214,10.0,15.0,91,0.49,,,0.24,Wunderground v.1.15,2013-05-25 22:15:00,
2013-05-25 17:20:00,66.6,63.9,30.08,SSW,211,9.0,9.0,91,0.25,,,0.26,Wunderground v.1.15,2013-05-25 22:20:00,
2013-05-25 17:24:00,66.5,64.0,30.07,SSW,206,6.0,12.0,92,0.23,,,0.27,weatherlink.com 1.10,2013-05-25 22:24:00,
2013-05-25 17:30:00,66.8,64.4,30.07,South,188,6.0,6.0,92,0.07,,,0.27,Wunderground v.1.15,2013-05-25 22:30:00,
2013-05-25 17:35:00,67.2,64.8,30.07,South,185,5.0,6.0,92,0.04,,,0.27,Wunderground v.1.15,2013-05-25 22:35:00,
2013-05-25 17:39:00,67.2,65.0,30.07,SSW,194,5.0,9.0,91,0.23,,,0.27,weatherlink.com 1.10,2013-05-25 22:39:00,
2013-05-25 17:45:00,67.6,64.9,30.07,SE,134,4.0,5.0,91,0.00,,,0.28,Wunderground v.1.15,2013-05-25 22:45:00,
2013-05-25 17:53:00,68.3,66.0,30.07,South,171,5.0,9.0,91,0.24,,,0.28,weatherlink.com 1.10,2013-05-25 22:53:00,
2013-05-25 18:00:00,68.9,66.2,30.07,South,169,5.0,8.0,91,0.00,,,0.28,Wunderground v.1.15,2013-05-25 23:00:00,
2013-05-25 18:05:00,69.3,66.6,30.07,South,170,5.0,8.0,91,0.00,,,0.29,Wunderground v.1.15,2013-05-25 23:05:00,
2013-05-25 18:09:00,69.5,67.0,30.07,South,175,3.0,8.0,92,0.07,,,0.29,weatherlink.com 1.10,2013-05-25 23:09:00,
2013-05-25 18:15:00,69.6,66.9,30.07,SSE,165,4.0,4.0,91,0.00,,,0.29,Wunderground v.1.15,2013-05-25 23:15:00,
2013-05-25 18:20:00,69.8,67.4,30.07,SE,128,3.0,3.0,92,0.00,,,0.29,Wunderground v.1.15,2013-05-25 23:20:00,
2013-05-25 18:24:00,69.9,68.0,30.07,SE,128,4.0,5.0,92,0.02,,,0.29,weatherlink.com 1.10,2013-05-25 23:24:00,
2013-05-25 18:30:00,69.8,67.4,30.07,SE,134,4.0,6.0,92,0.00,,,0.30,Wunderground v.1.15,2013-05-25 23:30:00,
2013-05-25 18:35:00,69.5,67.1,30.07,SE,134,7.0,7.0,92,0.00,,,0.30,Wunderground v.1.15,2013-05-25 23:35:00,
2013-05-25 18:39:00,69.4,67.0,30.07,ESE,123,10.0,13.0,93,0.03,,,0.30,weatherlink.com 1.10,2013-05-25 23:39:00,
2013-05-25 18:45:00,69.3,67.2,30.06,SE,144,7.0,10.0,93,0.00,,,0.30,Wunderground v.1.15,2013-05-25 23:45:00,
2013-05-25 18:50:00,69.2,67.1,30.06,East,91,6.0,6.0,93,0.00,,,0.30,Wunderground v.1.15,2013-05-25 23:50:00,
2013-05-25 18:54:00,69.2,67.0,30.06,East,92,5.0,11.0,93,0.02,,,0.30,weatherlink.com 1.10,2013-05-25 23:54:00,
2013-05-25 19:00:00,69.2,67.1,30.05,East,97,5.0,5.0,93,0.00,,,0.30,Wunderground v.1.15,2013-05-26 00:00:00,
2013-05-25 19:05:00,69.1,67.0,30.06,ESE,104,4.0,5.0,93,0.00,,,0.30,Wunderground v.1.15,2013-05-26 00:05:00,
2013-05-25 19:09:00,69.1,67.0,30.06,ESE,104,0.0,6.0,93,0.01,,,0.30,weatherlink.com 1.10,2013-05-26 00:09:00,
2013-05-25 19:15:00,69.1,67.0,30.05,ESE,104,1.0,2.0,93,0.00,,,0.30,Wunderground v.1.15,2013-05-26 00:15:00,
2013-05-25 19:20:00,69.2,67.1,30.05,ESE,107,2.0,2.0,93,0.00,,,0.30,Wunderground v.1.15,2013-05-26 00:20:00,
2013-05-25 19:24:00,69.2,67.0,30.04,ESE,107,3.0,4.0,93,0.01,,,0.30,weatherlink.com 1.10,2013-05-26 00:24:00,
2013-05-25 19:30:00,69.4,67.3,30.04,SSE,158,3.0,6.0,93,0.00,,,0.30,Wunderground v.1.15,2013-05-26 00:30:00,
2013-05-25 19:35:00,69.6,67.5,30.05,SSE,168,3.0,6.0,93,0.00,,,0.30,Wunderground v.1.15,2013-05-26 00:35:00,
2013-05-25 19:39:00,69.6,67.0,30.05,SSE,147,3.0,8.0,92,0.00,,,0.30,weatherlink.com 1.10,2013-05-26 00:39:00,
2013-05-25 19:45:00,69.8,67.4,30.04,SE,126,4.0,5.0,92,0.00,,,0.30,Wunderground v.1.15,2013-05-26 00:45:00,
2013-05-25 19:54:00,69.8,67.0,30.04,SE,128,2.0,9.0,92,0.00,,,0.30,weatherlink.com 1.10,2013-05-26 00:54:00,
2013-05-25 20:00:00,69.7,67.3,30.03,SE,137,3.0,3.0,92,0.00,,,0.30,Wunderground v.1.15,2013-05-26 01:00:00,
2013-05-25 20:05:00,69.7,67.6,30.03,SE,134,3.0,3.0,93,0.00,,,0.30,Wunderground v.1.15,2013-05-26 01:05:00,
2013-05-25 20:09:00,69.7,68.0,30.02,SE,134,2.0,4.0,93,0.00,,,0.30,weatherlink.com 1.10,2013-05-26 01:09:00,
2013-05-25 20:15:00,69.6,67.5,30.01,South,172,3.0,5.0,93,0.00,,,0.30,Wunderground v.1.15,2013-05-26 01:15:00,
2013-05-25 20:20:00,69.6,67.5,30.01,South,175,4.0,6.0,93,0.00,,,0.30,Wunderground v.1.15,2013-05-26 01:20:00,
2013-05-25 20:24:00,69.5,68.0,30.00,SSE,157,4.0,8.0,93,0.00,,,0.30,weatherlink.com 1.10,2013-05-26 01:24:00,
2013-05-25 20:30:00,69.5,67.4,30.00,SSE,158,4.0,4.0,93,0.00,,,0.30,Wunderground v.1.15,2013-05-26 01:30:00,
2013-05-25 20:35:00,69.4,67.3,30.00,SSE,160,4.0,4.0,93,0.00,,,0.30,Wunderground v.1.15,2013-05-26 01:35:00,
2013-05-25 20:39:00,69.3,67.0,30.00,SE,146,4.0,8.0,93,0.00,,,0.30,weatherlink.com 1.10,2013-05-26 01:39:00,
2013-05-25 20:45:00,69.2,67.1,30.00,SE,125,4.0,4.0,93,0.00,,,0.30,Wunderground v.1.15,2013-05-26 01:45:00,
2013-05-25 20:50:00,69.0,66.6,30.00,SE,126,4.0,6.0,92,0.00,,,0.30,Wunderground v.1.15,2013-05-26 01:50:00,
2013-05-25 20:54:00,68.8,67.0,30.00,SE,136,1.0,7.0,93,0.00,,,0.30,weatherlink.com 1.10,2013-05-26 01:54:00,
2013-05-25 21:00:00,68.6,66.2,30.00,SSE,165,4.0,4.0,92,0.00,,,0.30,Wunderground v.1.15,2013-05-26 02:00:00,
2013-05-25 21:05:00,68.5,66.1,30.00,SE,144,4.0,4.0,92,0.00,,,0.30,Wunderground v.1.15,2013-05-26 02:05:00,
2013-05-25 21:09:00,68.5,66.0,30.00,South,170,4.0,6.0,92,0.00,,,0.30,weatherlink.com 1.10,2013-05-26 02:09:00,
2013-05-25 21:15:00,68.3,65.9,30.00,South,176,4.0,4.0,92,0.00,,,0.30,Wunderground v.1.15,2013-05-26 02:15:00,
2013-05-25 21:20:00,68.3,65.6,30.00,SSE,161,5.0,5.0,91,0.00,,,0.30,Wunderground v.1.15,2013-05-26 02:20:00,
2013-05-25 21:26:00,68.3,66.0,30.01,SSE,161,5.0,8.0,91,0.00,,,0.30,weatherlink.com 1.10,2013-05-26 02:26:00,
2013-05-25 21:35:00,68.2,65.2,30.02,SE,137,4.0,5.0,90,0.00,,,0.30,Wunderground v.1.15,2013-05-26 02:35:00,
2013-05-25 21:40:00,68.1,65.1,30.02,SE,128,5.0,5.0,90,0.00,,,0.30,Wunderground v.1.15,2013-05-26 02:40:00,
2013-05-25 21:41:00,68.1,65.0,30.02,SE,128,6.0,8.0,90,0.00,,,0.30,weatherlink.com 1.10,2013-05-26 02:41:00,
2013-05-25 21:50:00,67.4,64.7,30.03,SE,130,4.0,4.0,91,0.00,,,0.30,Wunderground v.1.15,2013-05-26 02:50:00,
2013-05-25 21:55:00,67.3,64.9,30.03,SE,138,4.0,6.0,92,0.00,,,0.30,Wunderground v.1.15,2013-05-26 02:55:00,
2013-05-25 21:56:00,67.3,65.0,30.03,SE,132,5.0,8.0,92,0.00,,,0.30,weatherlink.com 1.10,2013-05-26 02:56:00,
2013-05-25 22:00:00,67.3,64.6,30.03,SE,129,5.0,7.0,91,0.00,,,0.30,Wunderground v.1.15,2013-05-26 03:00:00,
2013-05-25 22:10:00,67.2,64.5,30.04,ESE,119,6.0,7.0,91,0.00,,,0.30,Wunderground v.1.15,2013-05-26 03:10:00,
2013-05-25 22:11:00,67.2,65.0,30.04,SE,130,5.0,10.0,91,0.00,,,0.30,weatherlink.com 1.10,2013-05-26 03:11:00,
2013-05-25 22:20:00,67.2,64.5,30.05,SSE,148,5.0,5.0,91,0.00,,,0.30,Wunderground v.1.15,2013-05-26 03:20:00,
2013-05-25 22:25:00,67.2,64.5,30.05,SE,140,5.0,5.0,91,0.00,,,0.30,Wunderground v.1.15,2013-05-26 03:25:00,
2013-05-25 22:26:00,67.2,65.0,30.05,SE,129,4.0,8.0,91,0.00,,,0.30,weatherlink.com 1.10,2013-05-26 03:26:00,
2013-05-25 22:30:00,67.3,64.6,30.06,SE,128,4.0,5.0,91,0.00,,,0.30,Wunderground v.1.15,2013-05-26 03:30:00,
2013-05-25 22:40:00,67.2,64.5,30.06,SE,128,4.0,5.0,91,0.00,,,0.30,Wunderground v.1.15,2013-05-26 03:40:00,
2013-05-25 22:41:00,67.2,65.0,30.06,SE,133,4.0,8.0,91,0.00,,,0.30,weatherlink.com 1.10,2013-05-26 03:41:00,
2013-05-25 22:50:00,67.1,64.4,30.05,SSE,159,4.0,4.0,91,0.00,,,0.30,Wunderground v.1.15,2013-05-26 03:50:00,
2013-05-25 22:55:00,67.0,64.6,30.06,SSE,157,5.0,5.0,92,0.00,,,0.30,Wunderground v.1.15,2013-05-26 03:55:00,
2013-05-25 22:56:00,67.1,65.0,30.05,SSE,150,4.0,9.0,92,0.00,,,0.30,weatherlink.com 1.10,2013-05-26 03:56:00,
2013-05-25 23:05:00,67.0,64.6,30.05,SSE,156,5.0,5.0,92,0.00,,,0.30,Wunderground v.1.15,2013-05-26 04:05:00,
2013-05-25 23:10:00,67.0,64.6,30.05,SSE,165,5.0,5.0,92,0.00,,,0.30,Wunderground v.1.15,2013-05-26 04:10:00,
2013-05-25 23:11:00,67.0,65.0,30.05,SSE,165,3.0,6.0,92,0.00,,,0.30,weatherlink.com 1.10,2013-05-26 04:11:00,
2013-05-25 23:20:00,66.8,64.4,30.05,SSE,164,4.0,5.0,92,0.00,,,0.30,Wunderground v.1.15,2013-05-26 04:20:00,
2013-05-25 23:25:00,66.8,64.7,30.05,SSE,152,4.0,5.0,93,0.00,,,0.30,Wunderground v.1.15,2013-05-26 04:25:00,
2013-05-25 23:26:00,66.8,65.0,30.05,SSE,153,4.0,7.0,93,0.00,,,0.30,weatherlink.com 1.10,2013-05-26 04:26:00,
2013-05-25 23:30:00,66.7,64.6,30.05,SSE,158,3.0,3.0,93,0.00,,,0.30,Wunderground v.1.15,2013-05-26 04:30:00,
2013-05-25 23:35:00,66.8,64.7,30.06,SSE,159,3.0,3.0,93,0.00,,,0.30,Wunderground v.1.15,2013-05-26 04:35:00,
2013-05-25 23:40:00,66.7,64.6,30.06,SE,142,2.0,2.0,93,0.00,,,0.30,Wunderground v.1.15,2013-05-26 04:40:00,
2013-05-25 23:41:00,66.8,65.0,30.06,SE,142,2.0,5.0,93,0.00,,,0.30,weatherlink.com 1.10,2013-05-26 04:41:00,
2013-05-25 23:45:00,66.7,64.6,30.06,SE,132,2.0,2.0,93,0.00,,,0.30,Wunderground v.1.15,2013-05-26 04:45:00,
2013-05-25 23:50:00,66.6,64.5,30.06,SE,132,3.0,3.0,93,0.00,,,0.30,Wunderground v.1.15,2013-05-26 04:50:00,
2013-05-25 23:55:00,66.6,64.5,30.06,SSE,157,3.0,3.0,93,0.00,,,0.30,Wunderground v.1.15,2013-05-26 04:55:00,
2013-05-25 23:56:00,66.6,65.0,30.05,SSE,157,4.0,6.0,94,0.00,,,0.30,weatherlink.com 1.10,2013-05-26 04:56:00,